Estación de Hornitos

Ultimos registro cada 15 minutos 29
Estación Fecha / Hora Temperatura Humedad Lluvia Velocidad Dirección Radiación Presion
29 Hornitos 08-05-2026 07:00 6,2 57 0 0 169 0 1011,3
28 Hornitos 08-05-2026 06:45 6,4 57 0 0 169 0 1011,2
27 Hornitos 08-05-2026 06:30 6,4 58 0 0 203 0 1011,2
26 Hornitos 08-05-2026 06:15 6,6 58 0 0 204 0 1011,2
25 Hornitos 08-05-2026 06:00 6,7 59 0 0 209 0 1011,1
24 Hornitos 08-05-2026 05:45 6,6 61 0 0 209 0 1011,1
23 Hornitos 08-05-2026 05:30 6,5 61 0 0 208 0 1010,9
22 Hornitos 08-05-2026 05:15 6,2 61 0 0 169 0 1011,1
21 Hornitos 08-05-2026 05:00 6,3 61 0 0 169 0 1010,9
20 Hornitos 08-05-2026 04:45 6,3 62 0 0 169 0 1011,1
19 Hornitos 08-05-2026 04:30 6,6 62 0 0 169 0 1011,2
18 Hornitos 08-05-2026 04:15 6,7 62 0 0 169 0 1011,1
17 Hornitos 08-05-2026 04:00 6,8 62 0 0 169 0 1010,9
16 Hornitos 08-05-2026 03:45 6,8 62 0 0 169 0 1011
15 Hornitos 08-05-2026 03:30 6,8 63 0 0 169 0 1011,1
14 Hornitos 08-05-2026 03:15 7 63 0 0 169 0 1011,4
13 Hornitos 08-05-2026 03:00 6,9 64 0 0 169 0 1011,6
12 Hornitos 08-05-2026 02:45 6,9 64 0 0 169 0 1011,5
11 Hornitos 08-05-2026 02:30 6,8 65 0 0 169 0 1011,6
10 Hornitos 08-05-2026 02:15 7,1 64 0 0 146 0 1011,6
9 Hornitos 08-05-2026 02:00 7,1 63 0 0 146 0 1011,8
8 Hornitos 08-05-2026 01:45 7,4 63 0 0 146 0 1012
7 Hornitos 08-05-2026 01:30 7,5 63 0 0 146 0 1012,1
6 Hornitos 08-05-2026 01:15 7,4 64 0 0 125 0 1012
5 Hornitos 08-05-2026 01:00 7,4 63 0 0 108 0 1012,3
4 Hornitos 08-05-2026 00:45 7,6 62 0 0 108 0 1012,4
3 Hornitos 08-05-2026 00:30 7,8 62 0 0 108 0 1012,6
2 Hornitos 08-05-2026 00:15 7,9 61 0 0 108 0 1012,8
1 Hornitos 08-05-2026 00:00 8,2 60 0 0 100 0 1012,9